Погода в Илети

Россия / Республика Марий Эл     56°06′49″N   48°21′09″E
темп.,
°C
ветер,
м/с
пор.,
м/с
влажн.,
%
обл.,
%
осадки,
мм/ч
давл.,
гПа
погр.,
м
13 мая, чт
чт1300:00+15вюв226688 0.0 102524
03:00+14в22669 0.0 102515
06:00+16вюв276735 0.0 1025203
09:00+22вюв58466 0.0 1024620
12:00+23юв584896 0.0 10231102
15:00+23вюв365599 0.0 1022596
18:00+21вюв5116172 0.0 1020354
21:00+20юв51564100 0.0 1020455
14 мая, пт
пт1400:00+16ююв4127585 0.0 1020259
03:00+14юв239137 2.0 102053
06:00+16ююв258197 0.0 1020203
09:00+21ююз356593 0.0 1021548
12:00+24ююз3558100 0.0 10211081
15:00+25ююз355288 0.0 10201335
18:00+23ю366953 0.3 1019160
21:00+18ююв337769 0.3 101934
15 мая, сб
сб1500:00+16ююв3379100 0.0 101931
03:00+16ююв367974 0.0 1019106
06:00+17ююв397682 0.2 1019239
09:00+22ю5854100 0.2 1019442
12:00+26ю6104294 0.0 1018955
15:00+27ю6104345 0.0 10181338
18:00+23ю51258100 0.0 1017337
21:00+19ю5146161 0.0 1017259
16 мая, вс
вс1600:00+17ю414595 0.0 1017251
03:00+15ю3116291 0.0 1017188
06:00+18ю3116557 0.0 1017291
09:00+23ююз595235 0.0 1017585
12:00+27ююз6942100 0.0 10171236
15:00+27юз4845100 0.0 10161629
18:00+24юз2465100 0.0 101583
21:00+19юз22775 0.0 101618
17 мая, пн
пн1700:00+17юз2380100 0.0 101647
03:00+15з119069 0.0 101711
06:00+18з1181100 0.0 101897
09:00+23зюз11635 0.0 1018610
12:00+26зюз24496 0.0 10181357
15:00+27зюз344532 0.0 10171580
18:00+25ссз226033 0.0 101731
21:00+19в017758 1.1 101813